TimeCDT,TemperatureF,Dew PointF,Humidity,Sea Level PressureIn,VisibilityMPH,Wind Direction,Wind SpeedMPH,Gust SpeedMPH,PrecipitationIn,Events,Conditions,WindDirDegrees,DateUTC
12:52 AM,25.0,19.9,81,30.37,10.0,Calm,Calm,-,N/A,,Clear,0,2013-03-14 05:52:00
1:52 AM,23.0,19.9,88,30.37,9.0,Calm,Calm,-,N/A,,Clear,0,2013-03-14 06:52:00
2:52 AM,21.9,19.0,89,30.34,9.0,SSE,3.5,-,N/A,,Clear,160,2013-03-14 07:52:00
4:52 AM,25.0,19.9,81,30.30,9.0,SE,4.6,-,N/A,,Overcast,130,2013-03-14 09:52:00
5:52 AM,26.1,19.0,75,30.32,10.0,SSE,3.5,-,N/A,,Overcast,150,2013-03-14 10:52:00
6:52 AM,26.1,19.9,78,30.32,10.0,SE,4.6,-,N/A,,Overcast,130,2013-03-14 11:52:00
7:52 AM,27.0,19.9,75,30.31,9.0,SE,6.9,-,N/A,,Scattered Clouds,130,2013-03-14 12:52:00
9:52 AM,30.0,21.0,69,30.27,10.0,SE,11.5,-,0.00,,Overcast,140,2013-03-14 14:52:00
10:52 AM,32.0,21.9,66,30.28,10.0,SE,6.9,-,N/A,,Overcast,140,2013-03-14 15:52:00
11:52 AM,36.0,25.0,64,30.20,10.0,SE,18.4,-,N/A,,Mostly Cloudy,140,2013-03-14 16:52:00
12:52 PM,39.0,26.1,60,30.17,10.0,SSE,19.6,-,N/A,,Partly Cloudy,160,2013-03-14 17:52:00
1:52 PM,43.0,26.1,51,30.17,10.0,ESE,13.8,-,N/A,,Scattered Clouds,120,2013-03-14 18:52:00
2:52 PM,43.0,28.0,56,30.16,10.0,SE,11.5,-,N/A,,Clear,130,2013-03-14 19:52:00
3:52 PM,44.1,28.9,55,30.12,10.0,SE,12.7,-,N/A,,Clear,140,2013-03-14 20:52:00
4:52 PM,45.0,30.0,56,30.13,10.0,South,10.4,-,N/A,,Clear,170,2013-03-14 21:52:00
5:52 PM,43.0,30.0,60,30.12,10.0,SE,8.1,-,N/A,,Clear,140,2013-03-14 22:52:00
6:52 PM,39.0,28.9,67,30.14,10.0,ESE,8.1,-,N/A,,Clear,110,2013-03-14 23:52:00
7:52 PM,34.0,28.0,79,30.14,8.0,East,6.9,-,N/A,,Clear,90,2013-03-15 00:52:00
8:52 PM,32.0,27.0,82,30.12,9.0,East,5.8,-,N/A,,Clear,100,2013-03-15 01:52:00
9:52 PM,30.9,28.0,89,30.11,8.0,SE,6.9,-,N/A,,Clear,140,2013-03-15 02:52:00
10:52 PM,34.0,28.9,82,30.09,8.0,SSE,6.9,-,N/A,,Clear,160,2013-03-15 03:52:00
11:52 PM,34.0,28.0,79,30.09,8.0,SSW,4.6,-,N/A,,Clear,210,2013-03-15 04:52:00